Погода в Покровском

Россия / Ульяновская область     54°35′23″N   48°04′47″E
темп.,
°C
ветер,
м/с
пор.,
м/с
влажн.,
%
обл.,
%
осадки,
мм/ч
давл.,
гПа
погр.,
м
20 июня, вс
вс2001:00+17з411864 0.0 1022178
04:00+16з410875 0.0 1023162
07:00+19зсз48805 0.0 1023208
10:00+24зсз45655 0.0 1022525
13:00+27зсз34565 0.0 10221219
16:00+28сз33480 0.0 10221707
19:00+27зсз23650 0.0 1020431
22:00+21сз22842 0.0 102125
21 июня, пн
пн2101:00+20сз22860 0.0 102214
04:00+19зсз22880 0.0 102211
07:00+22з22780 0.0 1023141
10:00+26зюз34645 0.0 1022834
13:00+28з33535 0.0 10221629
16:00+29з23492 0.0 10221804
19:00+27зюз346511 0.0 1021153
22:00+22з33786 0.0 102242
22 июня, вт
вт2201:00+21зсз228118 0.0 102221
04:00+20зсз228599 0.0 102312
07:00+23з23787 0.0 1023141
10:00+27зсз226232 0.0 1023736
13:00+29з225198 0.0 10231543
16:00+30з22475 0.0 10221715
19:00+29з22590 0.0 1021108
22:00+23зсз22730 0.0 102220
23 июня, ср
ср2301:00+21зсз22772 0.0 102215
04:00+20сз22813 0.0 102213
07:00+23зсз23755 0.1 1022135
10:00+28сз33614 0.1 1022781
13:00+30сз22474 0.0 10221674
16:00+31сз22414 0.0 10212260
19:00+29зсз225565 0.0 102159
22:00+24з34663 0.0 102170
24 июня, чт
чт2401:00+22ссз227336 0.0 102127
04:00+20зсз33780 0.0 102138
07:00+23зсз35750 0.0 1021168
10:00+28зсз44610 0.0 1020636
13:00+30зсз45510 0.0 10201597
16:00+31ссз45500 0.0 10191377
19:00+22зюз71081100 2.1 1019246
22:00+19з45835 7.3 101877